Regional Weather Roundup
Issued by NWS

Home | Current Version | Previous Version | Graphics & Text | Print | Product List | Glossary On
Versions: 1 2 3 4 5 6 7 8 9 10 11 12 13 14 15 16 17 18 19 20 21 22 23 24 25 26 27 28 29 30 31 32 33 34 35 36 37 38 39 40 41 42 43 44 45 46 47 48 49 50
000
ASUS45 KABQ 231710
RWRNM
NEW MEXICO REGIONAL WEATHER ROUNDUP
NATIONAL WEATHER SERVICE ALBUQUERQUE NM
1100 AM MDT TUE AUG 23 2016

NOTE: "FAIR" MEANS FEW OR NO CLOUDS BELOW 12,000 FEET AGL WITH NO
       SIGNIFICANT WEATHER OR OBSTRUCTIONS TO VISION.

      THIS PRODUCT IS RELEASED AS TWO VERSIONS.  ONE VERSION NEAR
      THE TOP OF THE HOUR CONTAINING PRELIMINARY DATA FROM ALBUQUERQUE
      AND OTHER STATIONS.  A FINAL VERSION WITH ADDITIONAL DATA IS
      ISSUED ABOUT 10 MINUTES AFTER THE HOUR.

NMZ501-503-504-510>518-231800-
NORTHWEST PLATEAU/NORTHCENTRAL MOUNTAINS

CITY           SKY/WX    TMP DP  RH WIND       PRES   REMARKS
FARMINGTON     FAIR      69  49  48 E6        30.21S
LOS ALAMOS     FAIR      64  52  64 CALM      30.34S
SANTA FE       FAIR      69  50  50 VRB6      30.28F
TAOS           PTSUNNY   64  45  48 S3        30.33S
ANGEL FIRE       N/A    N/A N/A N/A MISG        N/A

$$
NMZ402-403-502-505>509-231800-
WESTCENTRAL MOUNTAINS/SOUTHWEST MOUNTAINS

CITY           SKY/WX    TMP DP  RH WIND       PRES   REMARKS
GALLUP         LGT RAIN  59  50  72 SW15      30.35R
GRANTS         PTSUNNY   69  49  48 W15       30.32S
SILVER CITY    FAIR      78  48  34 W7        30.26S

$$
NMZ407-409-411-412-231800-
SOUTHERN DESERTS

CITY           SKY/WX    TMP DP  RH WIND       PRES   REMARKS
LORDSBURG      FAIR      82  50  32 W10G16    30.19S
DEMING         FAIR      80  56  43 NW7       30.19S
LAS CRUCES     FAIR      77  60  55 SW3       30.20F
HOLLOMAN AFB   FAIR      82  59  45 SW7       30.16S
ALAMOGORDO     FAIR      81  59  47 S12       30.18S
T OR C           N/A     75  57  53 VRB5      30.21S

$$
NMZ519>523-231800-
CENTRAL VALLEYS/CENTRAL HIGHLANDS

CITY           SKY/WX    TMP DP  RH WIND       PRES   REMARKS
ALBUQUERQUE    FAIR      71  55  56 SW5       30.25S
DOUBLE EAGLE   MOSUNNY   70  55  60 VRB5      30.28R
MORIARTY ARPT  FAIR      73  51  46 S6        30.29S
CLINES CORNERS FAIR      70  49  47 W17       30.33R
BELEN          FAIR      71  55  56 CALM      30.23F
SOCORRO        FAIR      76  53  43 CALM      30.21F

$$
NMZ524>526-539-540-231800-
SOUTHCENTRAL MOUNTAINS

CITY           SKY/WX    TMP DP  RH WIND       PRES   REMARKS
RUIDOSO          N/A     72  48  43 W10       30.35S

$$
NMZ527>531-231800-
NORTHEAST HIGHLANDS/NORTHEAST PLAINS

CITY           SKY/WX    TMP DP  RH WIND       PRES   REMARKS
LAS VEGAS      FAIR      75  43  31 W21G29    30.27S
RATON          FAIR      77  43  29 VRB5      30.16F
CLAYTON        FAIR      82  48  30 W15G26    30.08S

$$
NMZ532>537-231800-
EASTCENTRAL PLAINS

CITY           SKY/WX    TMP DP  RH WIND       PRES   REMARKS
TUCUMCARI      FAIR      84  56  38 W15       30.08F
CANNON AFB     FAIR      83  60  45 W17G24    30.14S
CLOVIS AIRPORT FAIR      82  63  51 SW16      30.14S

$$
NMZ028-029-538-231800-
SOUTHEAST PLAINS

CITY           SKY/WX    TMP DP  RH WIND       PRES   REMARKS
ROSWELL        FAIR      84  59  42 S8        30.11F
ARTESIA        FAIR      82  64  54 VRB7      30.13S
CARLSBAD       FAIR      83  65  54 S6        30.11S
HOBBS          SUNNY     82  64  54 S14G22    30.16S


$$




USA.gov is the U.S. government's official web portal to all federal, state and local government web resources and services.